Вернуться в каталог

CZ-6A DEB

АктивенSSO
NORAD 54918·DEBRIS·🇨🇳 China

Запущен Nov 11, 2022 с Taiyuan Satellite Launch Center

Loading…

Ближайшие Пролёты (ближайшие 24 часа)

TLE

СвежийSource: Space-Track

Эпоха: Sep 14, 2026, 23:26 UTC

1 54918U 22151RF  26257.97701411  .00001484  00000-0  69412-3 0  9992
2 54918  98.8143 273.4178 0030140  45.2682 315.0941 14.21579417195075

Отслеживайте CZ-6A DEB в реальном времени с AllMySat

Download on the App Store